CZ-6A DEB, 55872

Orbit data source: Space-Track

CZ-6A DEB, 55872 is space debris in SSO originally from a launch on Fri, 11 Nov 2022 UTC launched from the Taiyaun Space Center, China (TSC). Debris objects in space refer to the collection of defunct objects orbiting the Earth. Examples of debris include non-operational satellites, rocket bodies, and fragments generated from explosions, collisions, or faulty payload assembly.

Loading next visibility...
Identifier
55872, 2022-151ZU
Orbit
SSO
Country
Flag of CNCN / PRC
Related business
Manufacturer
SAST
Mission
Spacecraft
Bus & Motor
Unknown
Mass
Unknown
Launch date (UTC)
2022-11-11 (3 years ago)
Launch vehicle
Unknown
Launch site
Taiyaun Space Center, China (TSC)
Object type
Payload
Rocket body
Debris
Shape & HBR
Unknown shape, 0.1 m
Radar Cross Section
Small (<0.1 m²)

Expand to show TLE details & history
Last TLE update: 2 days ago

TLE from 2 days ago
0 CZ-6A DEB
1 55872U 22151ZU  25348.94646784  .00000351  00000-0  21690-3 0  9998
2 55872  98.8304 348.8005 0041088 113.2612 247.2893 14.11235126147054
Epoch: 2025-12-14T22:42Z
TLE epoch observation values (Epoch: 2025-12-14T22:42:54.821Z)
Latitude
Longitude
-75.78001°
Altitude
869.627 km
Speed
7.412 km/s
True Right ascension
23h 15m 12s
True Declination
0° 00' 00"
Sunlit
Object was in daylight at epoch
Visualization orbit readout
Latitude
Unknown
Longitude
Unknown
Altitude
Unknown
Speed
Unknown
Apparent Right ascension
Unknown
Apparent Declination
Unknown
Sunlit
N/A
Visualization observer readout
Local Sidereal Time
19:52:54
Azimuth
Unknown
Elevation
Unknown
Doppler factor
Unknown
Orbital elements
Apogee altitude
882.033 km
Perigee altitude
822.616 km
Semi-major axis
7,230.461 km
Eccentricity
0.00411
Inclination
98.8304°
RAAN
348.8005°
Arg. of periapsis
113.2612°
True anomaly
246.85584°
Mean anomaly
247.2893°
Eccentric anomaly
247.07248°
Mean motion
3.53016 °/min
Orbital period
101.98 mins
BSTAR
0.0002169
Loading maneuver chart data...
Computing Atmospheric mass density...

Documentation

Showing up to 5 results
|